| time (UTC) | temp F | wind direction | speed MPH | gust MPH | rain 1hr in | rain 24hr in | rain mn in | humidity % | barometer mb |
| 20260507190506 | 53 | 204 | 13.0 | 15.0 | 0.00 | 0.00 | 0.00 | 1013.0 | |
| 20260507183506 | 53 | 201 | 13.0 | 15.0 | 0.00 | 0.00 | 0.00 | 1013.0 | |
| 20260507180506 | 53 | 201 | 13.0 | 15.0 | 0.00 | 0.00 | 0.00 | 1013.0 | |
| 20260507173505 | 54 | 214 | 13.0 | 15.0 | 0.00 | 0.00 | 0.00 | 1013.0 | |
| 20260507170506 | 54 | 214 | 13.0 | 15.0 | 0.00 | 0.00 | 0.00 | 1013.0 | |
| 20260507163505 | 53 | 210 | 9.0 | 11.0 | 0.00 | 0.00 | 0.00 | 1013.0 | |
| 20260507160505 | 53 | 210 | 9.0 | 11.0 | 0.00 | 0.00 | 0.00 | 1013.0 | |
| 20260507153505 | 53 | 210 | 10.0 | 12.0 | 0.00 | 0.00 | 0.00 | 1014.0 | |
| 20260507150505 | 53 | 210 | 10.0 | 12.0 | 0.00 | 0.00 | 0.00 | 1013.0 | |
| 20260507143505 | 53 | 206 | 10.0 | 12.0 | 0.00 | 0.00 | 0.00 | 1014.0 | |
| 20260507140505 | 53 | 206 | 10.0 | 12.0 | 0.00 | 0.00 | 0.00 | 1014.0 | |
| 20260507133505 | 52 | 202 | 9.0 | 11.0 | 0.00 | 0.00 | 0.00 | 1014.0 | |
| 20260507130505 | 52 | 202 | 9.0 | 11.0 | 0.00 | 0.00 | 0.00 | 1014.0 | |
| 20260507123506 | 52 | 198 | 9.0 | 11.0 | 0.00 | 0.00 | 0.00 | 1015.0 | |
| 20260507120506 | 52 | 198 | 9.0 | 11.0 | 0.00 | 0.00 | 0.00 | 1014.0 | |
| 20260507113506 | 51 | 186 | 8.0 | 9.0 | 0.00 | 0.00 | 0.00 | 1014.0 | |
| 20260507110506 | 51 | 186 | 8.0 | 9.0 | 0.00 | 0.00 | 0.00 | 1014.0 | |
| 20260507103506 | 50 | 150 | 5.0 | 6.0 | 0.00 | 0.00 | 0.00 | 1015.0 | |
| 20260507100506 | 50 | 150 | 5.0 | 6.0 | 0.00 | 0.00 | 0.00 | 1014.0 | |
| 20260507093506 | 49 | 156 | 4.0 | 6.0 | 0.00 | 0.00 | 0.00 | 1015.0 | |
| 20260507090506 | 49 | 156 | 4.0 | 6.0 | 0.00 | 0.00 | 0.00 | 1015.0 | |
| 20260507083505 | 48 | 152 | 3.0 | 6.0 | 0.00 | 0.00 | 0.00 | 1015.0 | |
| 20260507080506 | 48 | 152 | 3.0 | 6.0 | 0.00 | 0.00 | 0.00 | 1015.0 | |
| 20260507073505 | 47 | 194 | 6.0 | 8.0 | 0.00 | 0.00 | 0.00 | 1015.0 | |
| 20260507070505 | 47 | 194 | 6.0 | 8.0 | 0.00 | 0.00 | 0.00 | 1015.0 | |
| 20260507063505 | 46 | 197 | 7.0 | 10.0 | 0.00 | 0.00 | 0.00 | 1015.0 | |
| 20260507060505 | 45 | 194 | 3.0 | 6.0 | 0.00 | 0.00 | 0.00 | 1015.0 | |
| 20260507053506 | 45 | 183 | 5.0 | 8.0 | 0.00 | 0.00 | 0.00 | 1015.0 | |
| 20260507050505 | 45 | 183 | 5.0 | 8.0 | 0.00 | 0.00 | 0.00 | 1015.0 | |
| 20260507043506 | 45 | 181 | 7.0 | 10.0 | 0.00 | 0.00 | 0.00 | 1015.0 | |
| 20260507040506 | 45 | 181 | 7.0 | 10.0 | 0.00 | 0.00 | 0.00 | 1015.0 | |
| 20260507033506 | 44 | 174 | 9.0 | 13.0 | 0.00 | 0.00 | 0.00 | 1015.0 | |
| 20260507030506 | 44 | 174 | 9.0 | 13.0 | 0.00 | 0.00 | 0.00 | 1015.0 | |
| 20260507023506 | 44 | 170 | 10.0 | 14.0 | 0.00 | 0.00 | 0.00 | 1016.0 | |
| 20260507020506 | 44 | 170 | 10.0 | 14.0 | 0.00 | 0.00 | 0.00 | 1016.0 | |
| 20260507013506 | 45 | 165 | 11.0 | 15.0 | 0.00 | 0.00 | 0.00 | 1016.0 | |
| 20260507010506 | 45 | 165 | 11.0 | 15.0 | 0.00 | 0.00 | 0.00 | 1016.0 | |
| 20260507003506 | 45 | 161 | 11.0 | 16.0 | 0.00 | 0.00 | 0.00 | 1016.0 | |
| 20260507000506 | 45 | 163 | 12.0 | 16.0 | 0.00 | 0.00 | 0.00 | 1016.0 | |
| 20260506233505 | 45 | 159 | 13.0 | 18.0 | 0.00 | 0.00 | 0.00 | 1016.0 | |
| 20260506230505 | 45 | 159 | 13.0 | 18.0 | 0.00 | 0.00 | 0.00 | 1016.0 | |
| 20260506223505 | 46 | 155 | 14.0 | 19.0 | 0.00 | 0.00 | 0.00 | 1016.0 | |
| 20260506220505 | 46 | 155 | 14.0 | 19.0 | 0.00 | 0.00 | 0.00 | 1016.0 | |
| 20260506213505 | 47 | 149 | 15.0 | 20.0 | 0.00 | 0.00 | 0.00 | 1017.0 | |
| 20260506210505 | 47 | 149 | 15.0 | 20.0 | 0.00 | 0.00 | 0.00 | 1017.0 | |
| 20260506203505 | 47 | 141 | 15.0 | 21.0 | 0.00 | 0.00 | 0.00 | 1017.0 | |
| 20260506200505 | 47 | 141 | 15.0 | 21.0 | 0.00 | 0.00 | 0.00 | 1017.0 | |
| 20260506193506 | 47 | 130 | 16.0 | 21.0 | 0.00 | 0.00 | 0.00 | 1017.0 |